• MPC Preparation (Info)

  • MPEC 2023-O64 : 2023 OL1

    The following Minor Planet Electronic Circular may be linked-to from your own Web pages, but must not otherwise be redistributed electronically.

    A form allowing access to any MPEC is at the bottom of this page.


    Read MPEC 2023-O63 Read MPEC 2023-O65


    M.P.E.C. 2023-O64                                 Issued 2023 July 24, 11:01 UT
    
         The Minor Planet Electronic Circulars contain information on unusual
             minor planets, routine data on comets and natural satellites,
             and occasional editorial announcements.  They are published
        on behalf of Division F of the International Astronomical Union by the
              Minor Planet Center, Smithsonian Astrophysical Observatory,
                              Cambridge, MA 02138, U.S.A.
    			  
                 Prepared using the Tamkin Foundation Computer Network
    
                                  MPC@CFA.HARVARD.EDU
                URL https://www.minorplanetcenter.net/    ISSN 1523-6714
    
                                    2023 OL1                                 
    
    
    Observations:
         K23O01L* C2023 07 22.27254616 38 56.613+01 48 12.02         20.87wXEO064F51
         K23O01L  C2023 07 22.28449216 39 01.123+01 49 25.79         20.41wXEO064F51
         K23O01L  C2023 07 22.29644916 39 05.624+01 50 39.48         20.82wXEO064F51
         K23O01L  C2023 07 22.31010516 39 10.788+01 52 03.78         20.53wXEO064F51
         K23O01L  C2023 07 22.38733516 39 39.988+01 59 57.41         20.69GVEO064F51
         K23O01L  C2023 07 22.38797816 39 40.249+02 00 01.50         20.46GVEO064F51
         K23O01L  C2023 07 22.38862016 39 40.484+02 00 05.54         20.82GVEO064F51
         K23O01L  C2023 07 22.38926216 39 40.733+02 00 09.78         20.15GVEO064F51
         K23O01L KB2023 07 22.78789 16 42 24.23 +02 41 05.5          20.5 VZEO064M49
         K23O01L KB2023 07 22.80567 16 42 30.71 +02 42 51.0          20.5 VZEO064M49
         K23O01L KB2023 07 22.82450 16 42 37.59 +02 44 42.1          20.2 VZEO064M49
         K23O01L KB2023 07 22.91115416 43 10.82 +02 51 44.1          19.8 GXEO064I93
         K23O01L KC2023 07 22.91829 16 43 12.80 +02 52 26.4          20.2 GVEO064104
         K23O01L KB2023 07 22.91857916 43 13.61 +02 52 28.5          19.9 GXEO064I93
         K23O01L KC2023 07 22.95587 16 43 26.83 +02 56 05.9                VEO064104
         K23O01L KC2023 07 23.15321616 44 45.14 +03 15 11.8          20.9 VuEO064H21
         K23O01L KC2023 07 23.15602216 44 46.16 +03 15 27.5          20.8 VuEO064H21
         K23O01L KC2023 07 23.15882816 44 47.17 +03 15 43.0          21.1 VuEO064H21
         K23O01L KC2023 07 23.16247516 44 48.50 +03 16 03.7          21.3 VuEO064H21
         K23O01L  C2023 07 24.17798616 51 09.309+04 48 47.92         20.6 GVEO064H01
         K23O01L  C2023 07 24.18370116 51 11.226+04 49 17.76         20.4 GVEO064H01
         K23O01L  C2023 07 24.20282016 51 17.660+04 50 57.56         21.0 GVEO064H01
         K23O01L  C2023 07 24.20775416 51 19.321+04 51 23.30         20.5 GVEO064H01
    
    Observer details:
    104 San Marcello Pistoiese.  Observers P. Bacci, M. Maestripieri, M. D.
        Grazia.  Measurers P. Bacci, L. Tesi, G. Fagioli.  0.60-m F4 Reflector +
        CCD.
    F51 Pan-STARRS 1, Haleakala.  Observers J. Bulger, T. Lowe, P. Minguez, A.
        Schultz, I. Smith, K. Chambers.  Measurers K. Chambers, T. de Boer, J.
        Bulger, J. Fairlamb, H. Gao, M. Huber, C.-C. Lin, T. Lowe, E. Magnier, P.
        Minguez, Y. Ramanjooloo, A. Schultz, I. Smith, R. Wainscoat, R. Weryk, S.
        Chastel.  1.8-m Ritchey-Chretien + CCD.
    H01 Magdalena Ridge Observatory, Socorro.  Observers W. H. Ryan, E. V. Ryan.
        Measurer W. H. Ryan.  2.4-m f/8.9 Ritchey-Chretien + CCD.
    H21 Astronomical Research Observatory, Westfield.  Observer R. Holmes.
        Measurers T. Linder, R. Holmes, L. Horn.  0.81-m f/4.0 astrograph + CCD.
    I93 St Pardon de Conques.  Observer F. Losse.  0.40-m f/3.7 reflector + CMO.
    M49 IAS Remote Observatory, Hakos.  Observers D. Husar, M. Junius.  Measurer
        D. Husar.  0.25-m f/4.6 reflector + CMO.
    
    Orbital elements:
    2023 OL1                                                 Earth MOID = 0.0416 AU
    Epoch 2023 Sept. 13.0 TT = JDT 2460200.5                Veres                   
    M  67.38794              (2000.0)            P               Q                  
    n   0.66363271     Peri.  318.28808     -0.39022682     +0.87768466             
    a   1.3017198      Node   287.01935     -0.74885645     -0.47834013             
    e   0.2214119      Incl.   16.91404     -0.53566505     +0.02933175             
    P   1.49           H   23.41          G   0.15           U   9                  
    Residuals in seconds of arc
    230722 F51  0.3+  0.1-    230722 M49  0.1-  0.3-    230723 H21  0.1+  0.4+
    230722 F51  0.2+  0.1-    230722 M49  0.4-  0.1+    230723 H21  0.1-  0.2-
    230722 F51  0.1-  0.3-    230722 M49  0.4-  0.2+    230723 H21  0.0   0.3-
    230722 F51  0.1+  0.2-    230722 I93  0.4-  0.6-    230724 H01  0.1+  0.0
    230722 F51  0.1-  0.5-    230722 104  0.4-  0.2-    230724 H01  0.0   0.1-
    230722 F51  0.1+  0.3-    230722 I93  0.2+  0.4+    230724 H01  0.0   0.0
    230722 F51  0.0   0.2-    230722 104  0.5-  0.3+    230724 H01  0.0   0.0
    230722 F51  0.1+  0.1+    230723 H21  0.0   0.8+
    
    Ephemeris:
    2023 OL1                 a,e,i = 1.30, 0.22, 17                  q = 1.0135
    Date    TT    R. A. (2000) Decl.     Delta      r    Elong.  Phase     V
    2023 06 24    10 14 53.7 -49 39 03   0.1255  1.0266    91.2    81.8    21.8
    ...
    2023 07 09    14 10 40.3 -32 43 00   0.07997 1.0519   114.1    61.9    20.2
    ...
    2023 07 17    15 55 31.7 -09 28 02   0.09031 1.0698   124.2    51.8    20.2
    ...
    2023 07 23    16 43 46.4 +03 01 09   0.1133  1.0850   125.0    50.1    20.7
    2023 07 24    16 50 04.6 +04 33 42   0.1179  1.0876   124.9    50.0    20.8
    2023 07 25    16 55 59.7 +05 58 24   0.1227  1.0903   124.7    50.0    20.9
    ...
    2023 07 31    17 25 10.0 +12 14 05   0.1539  1.1072   123.3    50.0    21.4
    ...
    2023 08 08    17 53 06.4 +16 43 29   0.1999  1.1312   121.4    49.9    22.0
    ...
    2023 08 23    18 30 39.5 +19 34 03   0.2929  1.1797   118.5    48.9    22.9
    
    M. P. C. Staff               (C) Copyright 2023 MPC           M.P.E.C. 2023-O64
    


    Read MPEC 2023-O63 Read MPEC 2023-O65


    MPEC number:

    Enter an MPEC number in one of the following forms:

    • 1997-B01 (the full form)
    • J97B01 (the packed version of the full form)
    • B01 (the abbreviated form)